Tracking 32139 objects as of 18-Nov-2025
HD Live streaming from Space Station
objects crossing your sky now

STARLINK-35117

Track STARLINK-35117 now!
10-day predictions
STARLINK-35117 is classified as:


NORAD ID: 65632
Int'l Code: 2025-210L
Perigee: 480.0 km
Apogee: 484.7 km
Inclination: 53.2 °
Period: 94.1 minutes
Semi major axis: 6853 km
RCS: Unknown
Launch date: September 18, 2025
Source: United States (US)
Launch site: AIR FORCE EASTERN TEST RANGE (AFETR)
Your satellite tracking list
Your tracking list is empty




NASA's NSSDC Master Catalog

Two Line Element Set (TLE):
1 65632U 25210L   25321.78512029  .00017671  00000-0  60740-3 0  9991
2 65632  53.1554 107.1727 0003434  61.5957 298.5389 15.30194531 10590
Source of the keplerian elements: AFSPC